Weather History for Shelbyville, IN

Change the Weather History Date:

Sunday, May 11, 2014

  Actual Average Record
Temperature  
Mean Temperature 70 °F 61 °F  
Max Temperature 83 °F 72 °F 89 °F (2011)
Min Temperature 56 °F 51 °F 45 °F (2012)
Degree Days  
Heating Degree Days 0 5  
Month to date heating degree days 41 70  
Since 1 July heating degree days 5640 5330  
Cooling Degree Days 5 1  
Month to date cooling degree days 36 11  
Year to date cooling degree days 46 24  
Growing Degree Days 20 (Base 50)    
Moisture  
Dew Point 61 °F    
Average Humidity 75    
Maximum Humidity 97    
Minimum Humidity 56    
Precipitation  
Precipitation 0.59 in 0.17 in 1.10 in (2005)
Month to date precipitation 0.70 2.05  
Year to date precipitation 12.04 14.55  
Sea Level Pressure  
Sea Level Pressure 30.01 in    
Wind  
Wind Speed 8 mph (SSE)    
Max Wind Speed 21 mph    
Max Gust Speed 24 mph    
Visibility 8 miles    
Events Rain , Thunderstorm    
T = Trace of Precipitation, MM = Missing Value Source: NWS Daily Summary

Daily Weather History Graph

Daily Weather History Graph

Search for Another Location

Airport:

Trip Planner

Search our weather history database for the weather conditions in past years. The results will help you decide how hot, cold, wet, or windy it might be!

Date:

Astronomy

May. 11, 2014 Rise Set
Actual Time 6:32 AM EDT 8:46 PM EDT
Civil Twilight 6:02 AM EDT 9:17 PM EDT
Nautical Twilight 5:25 AM EDT 9:54 PM EDT
Astronomical Twilight 4:45 AM EDT 10:34 PM EDT
Moon 5:42 PM EDT (5/11) 4:36 AM EDT (5/11)
Length of Visible Light 15h 14m
Length of Day
14h 14m
Waxing Gibbous, 89% of the Moon is Illuminated
May 11
Waxing Gibbous
May 14
Full
May 21
Last Quarter
May 28
New
Jun 5
First Quarter

Hourly Weather History & Observations

Time (EDT) Temp. Heat Index Dew Point Humidity Pressure Visibility Wind Dir Wind Speed Gust Speed Precip Events Conditions
12:53 AM 57.9 °F - 46.9 °F 67% 30.01 in 10.0 mi Calm Calm - N/A   Clear
1:53 AM 59.0 °F - 48.0 °F 67% 30.02 in 10.0 mi Calm Calm - N/A   Clear
2:53 AM 57.9 °F - 51.1 °F 78% 30.01 in 10.0 mi Calm Calm - N/A   Clear
3:53 AM 57.9 °F - 53.1 °F 84% 30.00 in 10.0 mi ESE 4.6 mph - N/A   Clear
4:53 AM 60.1 °F - 55.9 °F 86% 30.01 in 5.0 mi SSE 3.5 mph - N/A   Clear
5:53 AM 61.0 °F - 57.9 °F 90% 30.02 in 4.0 mi SE 4.6 mph - N/A   Partly Cloudy
6:22 AM 62.1 °F - 57.9 °F 86% 30.08 in 4.0 mi North - - N/A Thunderstorm Mostly Cloudy
6:42 AM 62.1 °F - 57.0 °F 84% 30.09 in 4.0 mi WNW 17.3 mph 21.9 mph 0.07 in Rain , Thunderstorm Thunderstorms and Rain
6:53 AM 62.1 °F - 57.0 °F 84% 30.08 in 5.0 mi WNW 15.0 mph - 0.11 in Rain , Thunderstorm Thunderstorms and Rain
7:15 AM 61.0 °F - 59.0 °F 93% 30.11 in 4.0 mi West 8.1 mph - 0.11 in Rain , Thunderstorm Rain
7:24 AM 61.0 °F - 60.1 °F 97% 30.09 in 3.0 mi SSE 6.9 mph - 0.16 in Rain Rain
7:53 AM 61.0 °F - 57.9 °F 90% 30.05 in 10.0 mi ENE 5.8 mph - 0.19 in   Scattered Clouds
8:53 AM 63.0 °F - 59.0 °F 87% 30.03 in 7.0 mi SE 5.8 mph - 0.00 in   Mostly Cloudy
9:53 AM 68.0 °F - 60.1 °F 76% 30.04 in 10.0 mi SSE 9.2 mph - N/A   Clear
10:53 AM 72.0 °F - 61.0 °F 68% 30.04 in 10.0 mi South 9.2 mph - N/A   Clear
11:53 AM 75.9 °F - 63.0 °F 64% 30.04 in 10.0 mi South 11.5 mph - N/A   Clear
12:53 PM 77.0 °F - 64.9 °F 66% 30.03 in 10.0 mi South 17.3 mph - N/A   Clear
1:53 PM 79.0 °F - 66.9 °F 66% 30.01 in 10.0 mi South 11.5 mph - N/A   Partly Cloudy
2:53 PM 82.0 °F 84.1 °F 66.0 °F 58% 29.99 in 10.0 mi South 16.1 mph 24.2 mph N/A   Mostly Cloudy
3:53 PM 82.9 °F 85.0 °F 66.0 °F 56% 29.97 in 10.0 mi South 10.4 mph - N/A   Scattered Clouds
4:11 PM 80.1 °F 82.3 °F 66.9 °F 64% 29.98 in 2.5 mi SSW 10.4 mph - 0.12 in Rain , Thunderstorm Light Thunderstorms and Rain
4:18 PM 75.9 °F - 64.9 °F 69% 29.98 in 1.2 mi NNE 9.2 mph - 0.17 in Rain , Thunderstorm Light Thunderstorms and Rain
4:22 PM 75.0 °F - 62.1 °F 64% 29.98 in 3.0 mi Variable 3.5 mph - 0.19 in Rain , Thunderstorm Light Thunderstorms and Rain
4:53 PM 77.0 °F - 64.9 °F 66% 29.95 in 7.0 mi Variable 3.5 mph - 0.21 in Rain , Thunderstorm Light Thunderstorms and Rain
5:53 PM 71.1 °F - 66.9 °F 87% 29.96 in 10.0 mi Variable 3.5 mph - 0.08 in Thunderstorm Mostly Cloudy
6:43 PM 73.9 °F - 64.9 °F 73% 29.97 in 10.0 mi East 13.8 mph - N/A   Partly Cloudy
6:53 PM 73.9 °F - 66.0 °F 76% 29.96 in 10.0 mi East 10.4 mph - N/A Thunderstorm Scattered Clouds
7:12 PM 73.0 °F - 66.0 °F 79% 29.96 in 10.0 mi East 4.6 mph - N/A   Mostly Cloudy
7:53 PM 73.0 °F - 64.9 °F 76% 29.96 in 10.0 mi SE 11.5 mph - N/A   Mostly Cloudy
8:19 PM 73.9 °F - 64.9 °F 73% 29.96 in 10.0 mi SE 9.2 mph - N/A Thunderstorm Mostly Cloudy
8:34 PM 78.1 °F - 64.0 °F 62% 29.97 in 10.0 mi South 12.7 mph - N/A   Mostly Cloudy
8:53 PM 77.0 °F - 64.0 °F 64% 29.96 in 10.0 mi South 9.2 mph - N/A   Scattered Clouds
9:53 PM 75.0 °F - 64.0 °F 69% 29.97 in 10.0 mi South 6.9 mph - 0.00 in   Clear
10:53 PM 72.0 °F - 64.0 °F 76% 29.99 in 10.0 mi South 4.6 mph - N/A   Partly Cloudy
11:53 PM 70.0 °F - 64.0 °F 81% 30.00 in 10.0 mi SSE 6.9 mph - N/A   Partly Cloudy